,,PA_Meas_PMT16A,,PR_Meas_QMR101_102,,RH_Meas_QMH101,,SR_Meas_QMS101,,TA_Meas_QMH101,,GenWind,,GenWind,
time,status,PA,status,PR,status,RH,status,SR,status,TA,status,DirAvg,status,SpdAvg,
2014-10-24, 00:00:05,VALID,918.959,VALID,0,VALID,96.6039,VALID,0,VALID,20.3253,VALID,179,VALID,0,
2014-10-24, 00:01:05,VALID,918.957,VALID,0,VALID,96.6192,VALID,0,VALID,20.3058,VALID,169,VALID,0,
2014-10-24, 00:02:05,VALID,918.96,VALID,0,VALID,96.6344,VALID,0,VALID,20.2879,VALID,182,VALID,0,
2014-10-24, 00:03:05,VALID,918.95,VALID,0,VALID,96.6497,VALID,0,VALID,20.3074,VALID,179,VALID,0,
2014-10-24, 00:04:05,VALID,918.975,VALID,0,VALID,96.6573,VALID,0,VALID,20.3074,VALID,178,VALID,0,
2014-10-24, 00:05:05,VALID,918.942,VALID,0,VALID,96.6878,VALID,0,VALID,20.3074,VALID,179,VALID,0,
2014-10-24, 00:06:05,VALID,918.948,VALID,0,VALID,96.7335,VALID,0,VALID,20.3269,VALID,178,VALID,0,
2014-10-24, 00:07:05,VALID,918.912,VALID,0,VALID,96.7335,VALID,0,VALID,20.2879,VALID,182,VALID,0,
2014-10-24, 00:08:05,VALID,918.891,VALID,0,VALID,96.7411,VALID,0,VALID,20.3464,VALID,180,VALID,0,
2014-10-24, 00:09:05,VALID,918.904,VALID,0,VALID,96.7411,VALID,0,VALID,20.2879,VALID,180,VALID,0,
2014-10-24, 00:10:05,VALID,918.876,VALID,0,VALID,96.7259,VALID,0,VALID,20.2879,VALID,181,VALID,0,
2014-10-24, 00:11:05,VALID,918.901,VALID,0,VALID,96.7488,VALID,0,VALID,20.3269,VALID,181,VALID,0,
2014-10-24, 00:12:05,VALID,918.889,VALID,0,VALID,96.7183,VALID,0,VALID,20.3269,VALID,166,VALID,0,
2014-10-24, 00:13:05,VALID,918.874,VALID,0,VALID,96.7107,VALID,0,VALID,20.3074,VALID,187,VALID,0,
2014-10-24, 00:14:05,VALID,918.883,VALID,0,VALID,96.6725,VALID,0,VALID,20.2684,VALID,187,VALID,0,
2014-10-24, 00:15:05,VALID,918.865,VALID,0,VALID,96.6344,VALID,0,VALID,20.3464,VALID,176,VALID,0,
2014-10-24, 00:16:05,VALID,918.849,VALID,0,VALID,96.6039,VALID,0,VALID,20.3464,VALID,187,VALID,0,
2014-10-24, 00:17:05,VALID,918.845,VALID,0,VALID,96.5582,VALID,0,VALID,20.3269,VALID,189,VALID,0,
2014-10-24, 00:18:05,VALID,918.871,VALID,0,VALID,96.5201,VALID,0,VALID,20.3464,VALID,187,VALID,0,
2014-10-24, 00:19:05,VALID,918.851,VALID,0,VALID,96.4667,VALID,0,VALID,20.3464,VALID,187,VALID,0,
2014-10-24, 00:20:05,VALID,918.864,VALID,0,VALID,96.4515,VALID,0,VALID,20.3659,VALID,188,VALID,0,
2014-10-24, 00:21:05,VALID,918.888,VALID,0,VALID,96.4362,VALID,0,VALID,20.3659,VALID,186,VALID,0,
2014-10-24, 00:22:05,VALID,918.892,VALID,0,VALID,96.36,VALID,0,VALID,20.3269,VALID,144,VALID,0,
2014-10-24, 00:23:05,VALID,918.887,VALID,0,VALID,96.2837,VALID,0,VALID,20.2863,VALID,154,VALID,0,
2014-10-24, 00:24:05,VALID,918.912,VALID,0,VALID,96.2456,VALID,0,VALID,20.3269,VALID,158,VALID,0,
2014-10-24, 00:25:05,VALID,918.911,VALID,0,VALID,96.2151,VALID,0,VALID,20.3074,VALID,157,VALID,0,
2014-10-24, 00:26:05,VALID,918.869,VALID,0,VALID,96.2075,VALID,0,VALID,20.2879,VALID,141,VALID,0,
2014-10-24, 00:27:05,VALID,918.862,VALID,0,VALID,96.2151,VALID,0,VALID,20.2684,VALID,142,VALID,0,
2014-10-24, 00:28:05,VALID,918.826,VALID,0,VALID,96.2304,VALID,0,VALID,20.2293,VALID,143,VALID,0,
2014-10-24, 00:29:05,VALID,918.831,VALID,0,VALID,96.2914,VALID,0,VALID,20.2293,VALID,149,VALID,0,
2014-10-24, 00:30:05,VALID,918.798,VALID,0,VALID,96.299,VALID,0,VALID,20.2504,VALID,118,VALID,0,
2014-10-24, 00:31:05,VALID,918.809,VALID,0,VALID,96.36,VALID,0,VALID,20.2293,VALID,135,VALID,0,
2014-10-24, 00:32:05,VALID,918.785,VALID,0,VALID,96.3752,VALID,0,VALID,20.2098,VALID,135,VALID,0,
2014-10-24, 00:33:05,VALID,918.758,VALID,0,VALID,96.3905,VALID,0,VALID,20.1903,VALID,135,VALID,0,
2014-10-24, 00:34:05,VALID,918.776,VALID,0,VALID,96.4133,VALID,0,VALID,20.2098,VALID,135,VALID,0,
2014-10-24, 00:35:05,VALID,918.775,VALID,0,VALID,96.4591,VALID,0,VALID,20.2098,VALID,135,VALID,0,
2014-10-24, 00:36:05,VALID,918.734,VALID,0,VALID,96.4743,VALID,0,VALID,20.2098,VALID,135,VALID,0,
2014-10-24, 00:37:05,VALID,918.692,VALID,0,VALID,96.4819,VALID,0,VALID,20.1903,VALID,166,VALID,0,
2014-10-24, 00:38:05,VALID,918.671,VALID,0,VALID,96.4819,VALID,0,VALID,20.2098,VALID,168,VALID,0,
2014-10-24, 00:39:05,VALID,918.667,VALID,0,VALID,96.4896,VALID,0,VALID,20.2098,VALID,166,VALID,0,
2014-10-24, 00:40:05,VALID,918.621,VALID,0,VALID,96.5048,VALID,0,VALID,20.1903,VALID,166,VALID,0,
2014-10-24, 00:41:05,VALID,918.603,VALID,0,VALID,96.4972,VALID,0,VALID,20.1888,VALID,166,VALID,0,
2014-10-24, 00:42:05,VALID,918.6,VALID,0,VALID,96.5277,VALID,0,VALID,20.2098,VALID,166,VALID,0,
2014-10-24, 00:43:05,VALID,918.585,VALID,0,VALID,96.5506,VALID,0,VALID,20.2489,VALID,166,VALID,0,
2014-10-24, 00:44:05,VALID,918.582,VALID,0,VALID,96.5353,VALID,0,VALID,20.2293,VALID,167,VALID,0,
2014-10-24, 00:45:05,VALID,918.565,VALID,0,VALID,96.4972,VALID,0,VALID,20.2278,VALID,168,VALID,0,
2014-10-24, 00:46:05,VALID,918.58,VALID,0,VALID,96.4896,VALID,0,VALID,20.2293,VALID,168,VALID,0,
2014-10-24, 00:47:05,VALID,918.575,VALID,0,VALID,96.4819,VALID,0,VALID,20.2489,VALID,168,VALID,0,
2014-10-24, 00:48:05,VALID,918.51,VALID,0,VALID,96.4591,VALID,0.107441,VALID,20.2293,VALID,168,VALID,0,
2014-10-24, 00:49:05,VALID,918.508,VALID,0,VALID,96.4286,VALID,0,VALID,20.2293,VALID,168,VALID,0,
2014-10-24, 00:50:05,VALID,918.476,VALID,0,VALID,96.4362,VALID,0,VALID,20.2489,VALID,168,VALID,0,
2014-10-24, 00:51:05,VALID,918.47,VALID,0,VALID,96.4286,VALID,0,VALID,20.2473,VALID,168,VALID,0,
2014-10-24, 00:52:05,VALID,918.465,VALID,0,VALID,96.3829,VALID,0,VALID,20.2473,VALID,168,VALID,0,
2014-10-24, 00:53:05,VALID,918.477,VALID,0,VALID,96.36,VALID,0,VALID,20.2293,VALID,168,VALID,0,
2014-10-24, 00:54:05,VALID,918.454,VALID,0,VALID,96.3447,VALID,0,VALID,20.2293,VALID,165,VALID,0,
2014-10-24, 00:55:05,VALID,918.417,VALID,0,VALID,96.3447,VALID,0.107441,VALID,20.2098,VALID,165,VALID,0,
2014-10-24, 00:56:05,VALID,918.41,VALID,0,VALID,96.3295,VALID,0,VALID,20.2098,VALID,166,VALID,0,
2014-10-24, 00:57:05,VALID,918.381,VALID,0,VALID,96.2914,VALID,0,VALID,20.1903,VALID,161,VALID,0,
2014-10-24, 00:58:05,VALID,918.348,VALID,0,VALID,96.3295,VALID,0,VALID,20.1708,VALID,161,VALID,0,
2014-10-24, 00:59:05,VALID,918.353,VALID,0,VALID,96.3142,VALID,0,VALID,20.1903,VALID,161,VALID,0,
2014-10-24, 01:00:05,VALID,918.315,VALID,0,VALID,96.2761,VALID,0,VALID,20.2098,VALID,161,VALID,0,
2014-10-24, 01:01:05,VALID,918.328,VALID,0,VALID,96.2609,VALID,0,VALID,20.2098,VALID,161,VALID,0,
2014-10-24, 01:02:05,VALID,918.224,VALID,0,VALID,96.2533,VALID,0,VALID,20.2098,VALID,161,VALID,0,
2014-10-24, 01:03:05,VALID,918.229,VALID,0,VALID,96.2609,VALID,0,VALID,20.2293,VALID,168,VALID,0,
2014-10-24, 01:04:05,VALID,918.2,VALID,0,VALID,96.2228,VALID,0,VALID,20.2098,VALID,169,VALID,0,
2014-10-24, 01:05:04,VALID,918.195,VALID,0,VALID,96.1923,VALID,0,VALID,20.1903,VALID,169,VALID,0,
2014-10-24, 01:06:04,VALID,918.148,VALID,0,VALID,96.1846,VALID,0,VALID,20.2098,VALID,169,VALID,0,
2014-10-24, 01:07:04,VALID,918.142,VALID,0,VALID,96.1618,VALID,0,VALID,20.2098,VALID,169,VALID,0,
2014-10-24, 01:08:04,VALID,918.097,VALID,0,VALID,96.1236,VALID,0,VALID,20.2293,VALID,169,VALID,0,
2014-10-24, 01:09:04,VALID,918.073,VALID,0,VALID,96.116,VALID,0,VALID,20.2293,VALID,169,VALID,0,
2014-10-24, 01:10:04,VALID,918.056,VALID,0,VALID,96.0855,VALID,0,VALID,20.2098,VALID,169,VALID,0,
2014-10-24, 01:11:04,VALID,918.089,VALID,0,VALID,96.0703,VALID,0,VALID,20.1708,VALID,169,VALID,0,
2014-10-24, 01:12:04,VALID,918.068,VALID,0,VALID,96.0779,VALID,0,VALID,20.1903,VALID,169,VALID,0,
2014-10-24, 01:13:04,VALID,918.056,VALID,0,VALID,96.1084,VALID,0,VALID,20.2098,VALID,169,VALID,0,
2014-10-24, 01:14:04,VALID,918.032,VALID,0,VALID,96.1465,VALID,0,VALID,20.2293,VALID,166,VALID,0,
2014-10-24, 01:15:04,VALID,917.993,VALID,0,VALID,96.1313,VALID,0,VALID,20.2098,VALID,163,VALID,0,
2014-10-24, 01:16:04,VALID,918.01,VALID,0,VALID,96.1236,VALID,0,VALID,20.2098,VALID,169,VALID,0,
2014-10-24, 01:17:04,VALID,917.936,VALID,0,VALID,96.0932,VALID,0,VALID,20.2098,VALID,169,VALID,0,
2014-10-24, 01:18:04,VALID,917.941,VALID,0,VALID,96.1313,VALID,0,VALID,20.2293,VALID,169,VALID,0,
2014-10-24, 01:19:04,VALID,917.92,VALID,0,VALID,96.1236,VALID,0,VALID,20.2278,VALID,168,VALID,0,
2014-10-24, 01:20:04,VALID,917.912,VALID,0,VALID,96.0855,VALID,0,VALID,20.2489,VALID,167,VALID,0,
2014-10-24, 01:21:04,VALID,917.889,VALID,0,VALID,96.0627,VALID,0,VALID,20.2489,VALID,168,VALID,0,
2014-10-24, 01:22:04,VALID,917.869,VALID,0,VALID,96.0322,VALID,0,VALID,20.2489,VALID,169,VALID,0,
2014-10-24, 01:23:04,VALID,917.906,VALID,0,VALID,95.9864,VALID,0,VALID,20.2278,VALID,169,VALID,0,
2014-10-24, 01:24:04,VALID,917.87,VALID,0,VALID,95.895,VALID,0,VALID,20.2098,VALID,169,VALID,0,
2014-10-24, 01:25:04,VALID,917.862,VALID,0,VALID,95.9026,VALID,0,VALID,20.2098,VALID,169,VALID,0,
2014-10-24, 01:26:04,VALID,917.87,VALID,0,VALID,95.9026,VALID,0,VALID,20.1903,VALID,167,VALID,0,
2014-10-24, 01:27:04,VALID,917.85,VALID,0,VALID,95.8721,VALID,0,VALID,20.1708,VALID,142,VALID,0,
2014-10-24, 01:28:04,VALID,917.867,VALID,0,VALID,95.8492,VALID,0,VALID,20.1903,VALID,141,VALID,0,
2014-10-24, 01:29:04,VALID,917.821,VALID,0,VALID,95.9026,VALID,0,VALID,20.2098,VALID,141,VALID,0,
2014-10-24, 01:30:04,VALID,917.8,VALID,0,VALID,95.9407,VALID,0,VALID,20.2293,VALID,141,VALID,0,
2014-10-24, 01:31:04,VALID,917.807,VALID,0,VALID,95.9407,VALID,0,VALID,20.2098,VALID,142,VALID,0,
2014-10-24, 01:32:04,VALID,917.805,VALID,0,VALID,95.9407,VALID,0,VALID,20.1903,VALID,141,VALID,0,
2014-10-24, 01:33:04,VALID,917.799,VALID,0,VALID,95.9407,VALID,0,VALID,20.2098,VALID,142,VALID,0,
2014-10-24, 01:34:04,VALID,917.793,VALID,0,VALID,95.9788,VALID,0,VALID,20.2098,VALID,141,VALID,0,
2014-10-24, 01:35:04,VALID,917.763,VALID,0,VALID,96.0093,VALID,0,VALID,20.1903,VALID,123,VALID,0,
2014-10-24, 01:36:04,VALID,917.767,VALID,0,VALID,95.9636,VALID,0,VALID,20.1108,VALID,131,VALID,0,
2014-10-24, 01:37:04,VALID,917.758,VALID,0,VALID,95.9483,VALID,0,VALID,20.0733,VALID,131,VALID,0,
2014-10-24, 01:38:04,VALID,917.753,VALID,0,VALID,95.9788,VALID,0,VALID,20.0928,VALID,130,VALID,0,
2014-10-24, 01:39:04,VALID,917.745,VALID,0,VALID,96.0093,VALID,0,VALID,20.0928,VALID,131,VALID,0,
2014-10-24, 01:40:04,VALID,917.714,VALID,0,VALID,96.0093,VALID,0,VALID,20.0928,VALID,131,VALID,0,
2014-10-24, 01:41:04,VALID,917.698,VALID,0,VALID,96.0017,VALID,0,VALID,20.0928,VALID,130,VALID,0,
2014-10-24, 01:42:04,VALID,917.69,VALID,0,VALID,96.0093,VALID,0,VALID,20.0928,VALID,130,VALID,0,
2014-10-24, 01:43:04,VALID,917.689,VALID,0,VALID,96.0322,VALID,0,VALID,20.1303,VALID,130,VALID,0,
2014-10-24, 01:44:04,VALID,917.706,VALID,0,VALID,96.0169,VALID,0,VALID,20.0928,VALID,130,VALID,0,
2014-10-24, 01:45:04,VALID,917.677,VALID,0,VALID,95.9941,VALID,0,VALID,20.0733,VALID,130,VALID,0,
2014-10-24, 01:46:04,VALID,917.673,VALID,0,VALID,96.0398,VALID,0,VALID,20.0328,VALID,130,VALID,0,
2014-10-24, 01:47:04,VALID,917.691,VALID,0,VALID,96.0932,VALID,0,VALID,20.0538,VALID,131,VALID,0,
2014-10-24, 01:48:04,VALID,917.684,VALID,0,VALID,96.1313,VALID,0,VALID,20.0733,VALID,130,VALID,0,
2014-10-24, 01:49:04,VALID,917.669,VALID,0,VALID,96.1923,VALID,0,VALID,20.0928,VALID,130,VALID,0,
2014-10-24, 01:50:04,VALID,917.622,VALID,0,VALID,96.1846,VALID,0,VALID,20.0733,VALID,108,VALID,0,
2014-10-24, 01:51:04,VALID,917.602,VALID,0,VALID,96.116,VALID,0,VALID,19.9953,VALID,97,VALID,0,
2014-10-24, 01:52:04,VALID,917.542,VALID,0,VALID,96.1236,VALID,0,VALID,20.0133,VALID,98,VALID,0,
2014-10-24, 01:53:04,VALID,917.562,VALID,0,VALID,96.1389,VALID,0,VALID,20.0343,VALID,98,VALID,0,
2014-10-24, 01:54:04,VALID,917.534,VALID,0,VALID,96.1541,VALID,0,VALID,20.0343,VALID,130,VALID,0,
2014-10-24, 01:55:04,VALID,917.518,VALID,0,VALID,96.1465,VALID,0.107441,VALID,20.0148,VALID,130,VALID,0,
2014-10-24, 01:56:04,VALID,917.545,VALID,0,VALID,96.1236,VALID,0,VALID,20.0148,VALID,131,VALID,0,
2014-10-24, 01:57:04,VALID,917.552,VALID,0,VALID,96.1084,VALID,0,VALID,19.9953,VALID,114,VALID,0,
2014-10-24, 01:58:04,VALID,917.559,VALID,0,VALID,96.1084,VALID,0,VALID,19.9953,VALID,114,VALID,0,
2014-10-24, 01:59:04,VALID,917.541,VALID,0,VALID,96.0932,VALID,0,VALID,20.0148,VALID,114,VALID,0,
2014-10-24, 02:00:04,VALID,917.55,VALID,0,VALID,96.0932,VALID,0,VALID,20.0538,VALID,114,VALID,0,
2014-10-24, 02:01:04,VALID,917.555,VALID,0,VALID,96.116,VALID,0,VALID,20.0733,VALID,114,VALID,0,
2014-10-24, 02:02:04,VALID,917.574,VALID,0,VALID,96.0855,VALID,0,VALID,20.0928,VALID,114,VALID,0,
2014-10-24, 02:03:04,VALID,917.548,VALID,0,VALID,96.0627,VALID,0,VALID,20.0928,VALID,114,VALID,0,
2014-10-24, 02:04:04,VALID,917.59,VALID,0,VALID,96.0474,VALID,0,VALID,20.1123,VALID,114,VALID,0,
2014-10-24, 02:05:04,VALID,917.591,VALID,0,VALID,96.0169,VALID,0,VALID,20.1108,VALID,128,VALID,0,
2014-10-24, 02:06:04,VALID,917.6,VALID,0,VALID,95.9864,VALID,0,VALID,20.1318,VALID,128,VALID,0,
2014-10-24, 02:07:04,VALID,917.597,VALID,0,VALID,95.9636,VALID,0,VALID,20.0928,VALID,128,VALID,0,
2014-10-24, 02:08:04,VALID,917.609,VALID,0,VALID,95.9331,VALID,0,VALID,20.0928,VALID,128,VALID,0,
2014-10-24, 02:09:04,VALID,917.59,VALID,0,VALID,95.9559,VALID,0,VALID,20.1318,VALID,128,VALID,0,
2014-10-24, 02:10:04,VALID,917.616,VALID,0,VALID,95.9483,VALID,0,VALID,20.1708,VALID,138,VALID,0,
2014-10-24, 02:11:04,VALID,917.602,VALID,0,VALID,95.9483,VALID,0,VALID,20.1318,VALID,139,VALID,0,
2014-10-24, 02:12:04,VALID,917.588,VALID,0,VALID,95.9483,VALID,0,VALID,20.1318,VALID,139,VALID,0,
2014-10-24, 02:13:04,VALID,917.602,VALID,0,VALID,95.895,VALID,0,VALID,20.0928,VALID,139,VALID,0,
2014-10-24, 02:14:04,VALID,917.581,VALID,0,VALID,95.8797,VALID,0,VALID,20.0538,VALID,139,VALID,0,
2014-10-24, 02:15:04,VALID,917.603,VALID,0,VALID,95.9331,VALID,0,VALID,20.0538,VALID,139,VALID,0,
2014-10-24, 02:16:04,VALID,917.547,VALID,0,VALID,95.9102,VALID,0,VALID,20.0148,VALID,139,VALID,0,
2014-10-24, 02:17:04,VALID,917.539,VALID,0,VALID,95.9407,VALID,0,VALID,19.9758,VALID,139,VALID,0,
2014-10-24, 02:18:04,VALID,917.489,VALID,0,VALID,95.9788,VALID,0,VALID,19.9563,VALID,138,VALID,0,
2014-10-24, 02:19:04,VALID,917.45,VALID,0,VALID,96.0093,VALID,0,VALID,19.9368,VALID,138,VALID,0,
2014-10-24, 02:20:04,VALID,917.463,VALID,0,VALID,96.0093,VALID,0,VALID,19.9173,VALID,137,VALID,0,
2014-10-24, 02:21:04,VALID,917.423,VALID,0,VALID,96.0245,VALID,0,VALID,19.8588,VALID,138,VALID,0,
2014-10-24, 02:22:04,VALID,917.427,VALID,0,VALID,96.0322,VALID,0,VALID,19.8393,VALID,138,VALID,0,
2014-10-24, 02:23:04,VALID,917.385,VALID,0,VALID,96.0855,VALID,0,VALID,19.8198,VALID,138,VALID,0,
2014-10-24, 02:24:04,VALID,917.388,VALID,0,VALID,96.1084,VALID,0,VALID,19.8003,VALID,136,VALID,0,
2014-10-24, 02:25:04,VALID,917.355,VALID,0,VALID,96.1389,VALID,0,VALID,19.7808,VALID,131,VALID,0,
2014-10-24, 02:26:04,VALID,917.326,VALID,0,VALID,96.1541,VALID,0,VALID,19.7418,VALID,127,VALID,0,
2014-10-24, 02:27:04,VALID,917.318,VALID,0,VALID,96.1923,VALID,0,VALID,19.7223,VALID,118,VALID,0,
2014-10-24, 02:28:04,VALID,917.293,VALID,0,VALID,96.2304,VALID,0,VALID,19.7223,VALID,118,VALID,0,
2014-10-24, 02:29:04,VALID,917.275,VALID,0,VALID,96.238,VALID,0,VALID,19.7028,VALID,118,VALID,0,
2014-10-24, 02:30:04,VALID,917.248,VALID,0,VALID,96.2761,VALID,0,VALID,19.7043,VALID,118,VALID,0,
2014-10-24, 02:31:04,VALID,917.249,VALID,0,VALID,96.299,VALID,0,VALID,19.7028,VALID,118,VALID,0,
2014-10-24, 02:32:04,VALID,917.235,VALID,0,VALID,96.36,VALID,0,VALID,19.6833,VALID,118,VALID,0,
2014-10-24, 02:33:04,VALID,917.208,VALID,0,VALID,96.3981,VALID,0,VALID,19.6443,VALID,118,VALID,0,
2014-10-24, 02:34:04,VALID,917.19,VALID,0,VALID,96.3981,VALID,0,VALID,19.6638,VALID,118,VALID,0,
2014-10-24, 02:35:04,VALID,917.169,VALID,0,VALID,96.4057,VALID,0,VALID,19.6443,VALID,118,VALID,0,
2014-10-24, 02:36:04,VALID,917.158,VALID,0,VALID,96.421,VALID,0,VALID,19.6443,VALID,118,VALID,0,
2014-10-24, 02:37:04,VALID,917.158,VALID,0,VALID,96.4057,VALID,0,VALID,19.6248,VALID,118,VALID,0,
2014-10-24, 02:38:04,VALID,917.181,VALID,0,VALID,96.3371,VALID,0,VALID,19.5858,VALID,118,VALID,0,
2014-10-24, 02:39:04,VALID,917.138,VALID,0,VALID,96.3295,VALID,0,VALID,19.5468,VALID,118,VALID,0,
2014-10-24, 02:40:04,VALID,917.148,VALID,0,VALID,96.3829,VALID,0,VALID,19.5468,VALID,118,VALID,0,
2014-10-24, 02:41:04,VALID,917.125,VALID,0,VALID,96.4286,VALID,0,VALID,19.5468,VALID,118,VALID,0,
2014-10-24, 02:42:04,VALID,917.101,VALID,0,VALID,96.4667,VALID,0,VALID,19.5468,VALID,118,VALID,0,
2014-10-24, 02:43:04,VALID,917.114,VALID,0,VALID,96.5201,VALID,0,VALID,19.5663,VALID,118,VALID,0,
2014-10-24, 02:44:04,VALID,917.1,VALID,0,VALID,96.5734,VALID,0,VALID,19.5858,VALID,118,VALID,0,
2014-10-24, 02:45:04,VALID,917.103,VALID,0,VALID,96.6573,VALID,0,VALID,19.6053,VALID,118,VALID,0,
2014-10-24, 02:46:04,VALID,917.092,VALID,0,VALID,96.6649,VALID,0,VALID,19.6068,VALID,118,VALID,0,
2014-10-24, 02:47:04,VALID,917.062,VALID,0,VALID,96.6954,VALID,0,VALID,19.5858,VALID,118,VALID,0,
2014-10-24, 02:48:04,VALID,916.987,VALID,0,VALID,96.7564,VALID,0,VALID,19.6263,VALID,118,VALID,0,
2014-10-24, 02:49:04,VALID,916.982,VALID,0,VALID,96.8174,VALID,0,VALID,19.6458,VALID,118,VALID,0,
2014-10-24, 02:50:04,VALID,916.955,VALID,0,VALID,96.8479,VALID,0,VALID,19.6653,VALID,118,VALID,0,
2014-10-24, 02:51:04,VALID,916.899,VALID,0,VALID,96.8555,VALID,0,VALID,19.6053,VALID,118,VALID,0,
2014-10-24, 02:52:04,VALID,916.891,VALID,0,VALID,96.8784,VALID,0,VALID,19.6053,VALID,118,VALID,0,
2014-10-24, 02:53:04,VALID,916.9,VALID,0,VALID,96.9241,VALID,0,VALID,19.6053,VALID,118,VALID,0,
2014-10-24, 02:54:04,VALID,916.878,VALID,0,VALID,96.9698,VALID,0,VALID,19.6248,VALID,118,VALID,0,
2014-10-24, 02:55:04,VALID,916.885,VALID,0,VALID,96.9927,VALID,0,VALID,19.6638,VALID,118,VALID,0,
2014-10-24, 02:56:04,VALID,916.889,VALID,0,VALID,97.008,VALID,0,VALID,19.6653,VALID,118,VALID,0,
2014-10-24, 02:57:04,VALID,916.897,VALID,0,VALID,97.0232,VALID,0,VALID,19.6443,VALID,118,VALID,0,
2014-10-24, 02:58:04,VALID,916.866,VALID,0,VALID,97.0385,VALID,0,VALID,19.6443,VALID,118,VALID,0,
2014-10-24, 02:59:04,VALID,916.857,VALID,0,VALID,97.0613,VALID,0,VALID,19.6443,VALID,118,VALID,0,
2014-10-24, 03:00:04,VALID,916.861,VALID,0,VALID,97.0766,VALID,0,VALID,19.6458,VALID,118,VALID,0,
2014-10-24, 03:01:04,VALID,916.886,VALID,0,VALID,97.0918,VALID,0,VALID,19.6053,VALID,118,VALID,0,
2014-10-24, 03:02:04,VALID,916.901,VALID,0,VALID,97.0918,VALID,0,VALID,19.6458,VALID,118,VALID,0,
2014-10-24, 03:03:04,VALID,916.883,VALID,0,VALID,97.1147,VALID,0,VALID,19.6263,VALID,118,VALID,0,
2014-10-24, 03:04:04,VALID,916.859,VALID,0,VALID,97.1299,VALID,0,VALID,19.6263,VALID,118,VALID,0,
2014-10-24, 03:05:04,VALID,916.88,VALID,0,VALID,97.1528,VALID,0,VALID,19.6248,VALID,118,VALID,0,
2014-10-24, 03:06:04,VALID,916.879,VALID,0,VALID,97.1681,VALID,0,VALID,19.6638,VALID,118,VALID,0,
2014-10-24, 03:07:04,VALID,916.828,VALID,0,VALID,97.1681,VALID,0,VALID,19.6638,VALID,118,VALID,0,
2014-10-24, 03:08:04,VALID,916.815,VALID,0,VALID,97.1833,VALID,0.107441,VALID,19.6428,VALID,118,VALID,0,
2014-10-24, 03:09:04,VALID,916.77,VALID,0,VALID,97.1909,VALID,0,VALID,19.6038,VALID,117,VALID,0,
2014-10-24, 03:10:04,VALID,916.806,VALID,0,VALID,97.1986,VALID,0.107441,VALID,19.6443,VALID,118,VALID,0,
2014-10-24, 03:11:04,VALID,916.778,VALID,0,VALID,97.2062,VALID,0,VALID,19.6443,VALID,117,VALID,0,
2014-10-24, 03:12:04,VALID,916.816,VALID,0,VALID,97.1986,VALID,0.107441,VALID,19.6248,VALID,118,VALID,0,
2014-10-24, 03:13:04,VALID,916.777,VALID,0,VALID,97.2214,VALID,0,VALID,19.6233,VALID,118,VALID,0,
2014-10-24, 03:14:04,VALID,916.745,VALID,0,VALID,97.229,VALID,0,VALID,19.6443,VALID,118,VALID,0,
2014-10-24, 03:15:04,VALID,916.742,VALID,0,VALID,97.229,VALID,0.107441,VALID,19.6233,VALID,118,VALID,0,
2014-10-24, 03:16:04,VALID,916.739,VALID,0,VALID,97.2214,VALID,0,VALID,19.5843,VALID,118,VALID,0,
2014-10-24, 03:17:04,VALID,916.705,VALID,0,VALID,97.2367,VALID,0,VALID,19.6038,VALID,118,VALID,0,
2014-10-24, 03:18:04,VALID,916.701,VALID,0,VALID,97.2672,VALID,0.107441,VALID,19.5843,VALID,118,VALID,0,
2014-10-24, 03:19:04,VALID,916.716,VALID,0,VALID,97.2367,VALID,0,VALID,19.5858,VALID,118,VALID,0,
2014-10-24, 03:20:04,VALID,916.723,VALID,0,VALID,97.2367,VALID,0,VALID,19.5468,VALID,118,VALID,0,
2014-10-24, 03:21:04,VALID,916.683,VALID,0,VALID,97.2672,VALID,0,VALID,19.5258,VALID,118,VALID,0,
2014-10-24, 03:22:04,VALID,916.691,VALID,0,VALID,97.2519,VALID,0.107441,VALID,19.5453,VALID,118,VALID,0,
2014-10-24, 03:23:04,VALID,916.687,VALID,0,VALID,97.2595,VALID,0.107441,VALID,19.5648,VALID,118,VALID,0,
2014-10-24, 03:24:04,VALID,916.67,VALID,0,VALID,97.2672,VALID,0.107441,VALID,19.5453,VALID,118,VALID,0,
2014-10-24, 03:25:04,VALID,916.666,VALID,0,VALID,97.2824,VALID,0.107441,VALID,19.5453,VALID,118,VALID,0,
2014-10-24, 03:26:04,VALID,916.664,VALID,0,VALID,97.2977,VALID,0.107441,VALID,19.5453,VALID,118,VALID,0,
2014-10-24, 03:27:04,VALID,916.645,VALID,0,VALID,97.2824,VALID,0,VALID,19.5258,VALID,115,VALID,0,
2014-10-24, 03:28:04,VALID,916.629,VALID,0,VALID,97.3205,VALID,0,VALID,19.5063,VALID,114,VALID,0,
2014-10-24, 03:29:04,VALID,916.593,VALID,0,VALID,97.3053,VALID,0.107441,VALID,19.4868,VALID,115,VALID,0,
2014-10-24, 03:30:04,VALID,916.61,VALID,0,VALID,97.3281,VALID,0.107441,VALID,19.5078,VALID,124,VALID,0,
2014-10-24, 03:31:04,VALID,916.558,VALID,0,VALID,97.3281,VALID,0,VALID,19.4868,VALID,119,VALID,0,
2014-10-24, 03:32:04,VALID,916.568,VALID,0,VALID,97.3281,VALID,0.107441,VALID,19.4673,VALID,119,VALID,0,
2014-10-24, 03:33:04,VALID,916.533,VALID,0,VALID,97.3434,VALID,0.107441,VALID,19.4868,VALID,98,VALID,0,
2014-10-24, 03:34:04,VALID,916.538,VALID,0,VALID,97.351,VALID,0,VALID,19.5078,VALID,112,VALID,0,
2014-10-24, 03:35:04,VALID,916.549,VALID,0,VALID,97.351,VALID,0,VALID,19.4673,VALID,130,VALID,0,
2014-10-24, 03:36:04,VALID,916.513,VALID,0,VALID,97.351,VALID,0.107441,VALID,19.4478,VALID,133,VALID,0,
2014-10-24, 03:37:04,VALID,916.521,VALID,0,VALID,97.3663,VALID,0,VALID,19.4493,VALID,132,VALID,0,
2014-10-24, 03:38:04,VALID,916.527,VALID,0,VALID,97.3739,VALID,0,VALID,19.4478,VALID,125,VALID,0,
2014-10-24, 03:39:04,VALID,916.55,VALID,0,VALID,97.3739,VALID,0.107441,VALID,19.4478,VALID,115,VALID,0,
2014-10-24, 03:40:04,VALID,916.568,VALID,0,VALID,97.4044,VALID,0.107441,VALID,19.4283,VALID,120,VALID,0,
2014-10-24, 03:41:04,VALID,916.572,VALID,0,VALID,97.4044,VALID,0,VALID,19.4298,VALID,132,VALID,0,
2014-10-24, 03:42:04,VALID,916.576,VALID,0,VALID,97.412,VALID,0,VALID,19.3893,VALID,136,VALID,0,
2014-10-24, 03:43:04,VALID,916.582,VALID,0,VALID,97.4196,VALID,0.107441,VALID,19.3893,VALID,136,VALID,0,
2014-10-24, 03:44:04,VALID,916.598,VALID,0,VALID,97.4044,VALID,0,VALID,19.3698,VALID,136,VALID,0,
2014-10-24, 03:45:04,VALID,916.619,VALID,0,VALID,97.4273,VALID,0,VALID,19.4283,VALID,136,VALID,0,
2014-10-24, 03:46:04,VALID,916.658,VALID,0,VALID,97.4273,VALID,0.107441,VALID,19.4493,VALID,136,VALID,0,
2014-10-24, 03:47:04,VALID,916.631,VALID,0,VALID,97.4349,VALID,0,VALID,19.4088,VALID,136,VALID,0,
2014-10-24, 03:48:04,VALID,916.619,VALID,0,VALID,97.4501,VALID,0,VALID,19.4103,VALID,136,VALID,0,
2014-10-24, 03:49:04,VALID,916.667,VALID,0,VALID,97.4577,VALID,0.107441,VALID,19.3893,VALID,136,VALID,0,
2014-10-24, 03:50:04,VALID,916.639,VALID,0,VALID,97.4425,VALID,0.107441,VALID,19.4088,VALID,136,VALID,0,
2014-10-24, 03:51:04,VALID,916.658,VALID,0,VALID,97.4654,VALID,0.107441,VALID,19.4298,VALID,136,VALID,0,
2014-10-24, 03:52:04,VALID,916.695,VALID,0,VALID,97.4577,VALID,0.107441,VALID,19.4283,VALID,136,VALID,0,
2014-10-24, 03:53:04,VALID,916.691,VALID,0,VALID,97.4577,VALID,0.107441,VALID,19.4478,VALID,136,VALID,0,
2014-10-24, 03:54:04,VALID,916.683,VALID,0,VALID,97.4577,VALID,0.107441,VALID,19.4493,VALID,182,VALID,0,
2014-10-24, 03:55:04,VALID,916.741,VALID,0,VALID,97.4882,VALID,0,VALID,19.4088,VALID,192,VALID,0,
2014-10-24, 03:56:04,VALID,916.756,VALID,0,VALID,97.4959,VALID,0.107441,VALID,19.4088,VALID,188,VALID,0,
2014-10-24, 03:57:04,VALID,916.737,VALID,0,VALID,97.4806,VALID,0,VALID,19.4298,VALID,185,VALID,0,
2014-10-24, 03:58:04,VALID,916.737,VALID,0,VALID,97.473,VALID,0.107441,VALID,19.4088,VALID,185,VALID,0,